Preview of NWS' New Version of Forecast
This preview is not operational and should not be used for support decisions.

Regional Weather Roundup (RWR)

Issued by National Weather Service (NWS)

                            
000
ASUS43 KDMX 252206
RWRIA 

WEATHER ROUNDUP FOR IOWA
NATIONAL WEATHER SERVICE DES MOINES IA
500 PM CDT THU APR 25 2019

NOTE: "FAIR" INDICATES FEW OR NO CLOUDS BELOW 12,000 FEET WITH NO
SIGNIFICANT WEATHER AND/OR OBSTRUCTIONS TO VISIBILITY.

* - THESE STATIONS ARE NOT NWS STATIONS...THUS NOT UNDER NWS
QUALITY CONTROL.  THEY ALSO DO NOT REPORT WEATHER SUCH 
AS PRECIPITATION OR FOG.  

IAZ001>003-012>014-020>022-031>034-043>046-252300-
   NORTHWEST IOWA
  
CITY           SKY/WX    TMP DP  RH WIND       PRES   REMARKS
CARROLL *      MOSUNNY   70  34  26 N25       29.89S                  
CHEROKEE *     SUNNY     68  35  28 N17G25    29.92S                  
DENISON *      SUNNY     70  30  23 N20G28    29.93R                  
LE MARS *        N/A    N/A N/A N/A MISG        N/A                   
SHELDON *      SUNNY     68  30  24 N18G25    29.90S                  
SIOUX CITY     MOSUNNY   70  38  31 NW22G30   29.92F                  
SPENCER        SUNNY     70  32  24 N24G33    29.91R                  
STORM LAKE *   SUNNY     66  30  26 N16G30    29.89S                  
$$
 
IAZ055>058-069>071-079>083-090>094-252300-
   SOUTHWEST IOWA
  
CITY           SKY/WX    TMP DP  RH WIND       PRES   REMARKS
ATLANTIC *     PTSUNNY   68  43  40 N12G20    29.90F                  
AUDUBON *      MOSUNNY   68  39  34 CALM      29.91F                  
CLARINDA *     MOSUNNY   66  37  34 N17G28    29.94R                  
COUNCIL BLFS * MOSUNNY   70  37  30 N15G23    29.93S                  
CRESTON *      MOSUNNY   61  45  55 N14G22    29.92R                  
HARLAN  *      MOSUNNY   70  36  28 N30G36    29.90F                  
LAMONI         MOSUNNY   57  47  69 N16G32    29.89S                  
RED OAK *      SUNNY     68  39  34 N23G30    29.92S                  
SHENANDOAH *   SUNNY     70  36  28 N22G30    29.92S HAZE             
$$
 
IAZ047>049-059>061-072>074-084-252300-
   CENTRAL IOWA
  
CITY           SKY/WX    TMP DP  RH WIND       PRES   REMARKS
AMES           MOSUNNY   61  47  59 VRB5      29.89S                  
ANKENY *       PTSUNNY   57  48  72 NE12      29.91S                  
BOONE *        SUNNY     63  48  59 N12G20    29.88F                  
CHARITON *     LGT RAIN  54  52  94 N20       29.88F                  
DES MOINES     MOSUNNY   58  46  64 NE15      29.90R                  
GRINNELL*      LGT RAIN  51  47  86 NE12      29.87F                  
KNOXVILLE *    CLOUDY    52  52 100 NE16G23   29.87F                  
MARSHALLTOWN   CLOUDY    56  50  80 NE8       29.86F                  
NEWTON *       CLOUDY    52  52 100 N10       29.87F                  
PELLA *        LGT RAIN  52  48  86 N12G18    29.89F                  
PERRY *        FAIR      66  40  38 N14G20    29.89F                  
$$
 
IAZ004>006-015-016-023>025-035-036-252300-
   NORTH CENTRAL IOWA
  
CITY           SKY/WX    TMP DP  RH WIND       PRES   REMARKS
ALGONA *       SUNNY     68  30  24 N21G29    29.87S                  
CLARION *      SUNNY     66  39  37 N13G23    29.87S                  
ESTHERVILLE    SUNNY     67  29  24 N21G33    29.89S                  
FORT DODGE *   MOSUNNY   68  36  30 N12G18    29.89S                  
MASON CITY     SUNNY     67  42  40 NW16G25   29.85F                  
FOREST CITY *  FAIR      66  28  24 N18G24    29.86S                  
IOWA FALLS *   FAIR      61  50  66 NW5       29.89S                  
$$

IAZ007>011-017>019-026>030-037>042-050>054-066-252300-
   NORTHEAST IOWA
  
CITY           SKY/WX    TMP DP  RH WIND       PRES   REMARKS
CEDAR RAPIDS   LGT RAIN  52  48  86 N23G37    29.83R                  
CHARLES CITY * FAIR      57  52  82 W7        29.85F                  
CLINTON *      LGT RAIN  59  54  83 N28G33    29.72R                  
DECORAH *      FAIR      54  48  82 CALM      29.83S                  
DUBUQUE        LGT RAIN  53  48  83 N24G33    29.79R                  
MONTICELLO *   LGT RAIN  52  50  93 N21G28    29.81R                  
OELWEIN *      FAIR      52  50  93 NE8       29.84F                  
WATERLOO       CLOUDY    55  49  80 N6        29.85F                  
$$
 
IAZ064-065-067-068-078-252300-
   EAST CENTRAL IOWA
  
CITY           SKY/WX    TMP DP  RH WIND       PRES   REMARKS
DAVENPORT      LGT RAIN  58  52  80 N26G38    29.74R                  
IOWA CITY      PTSUNNY   58  47  66 N29G45    29.82R                  
MT. PLEASANT * CLOUDY    63  52  67 N24G33    29.76R                  
MUSCATINE *    FAIR      64  48  55 N24G39    29.74R                  
QUAD CITIES    FAIR      72  53  51 NW8       29.69S                  
$$
 
IAZ062-063-075>077-085>089-095>099-252300-
   SOUTHEAST IOWA
  
CITY           SKY/WX    TMP DP  RH WIND       PRES   REMARKS
BURLINGTON     CLOUDY    71  51  49 NW3       29.69S                  
FAIRFIELD *    CLOUDY    55  48  76 N30G41    29.80R                  
FORT MADISON * CLOUDY    72  54  53 W22       29.72R                  
KEOKUK *       MOSUNNY   72  52  49 N7G14     29.70S                  
OSKALOOSA *    LGT RAIN  53  47  79 N29       29.87R                  
CENTERVILLE *  LGT RAIN  55  46  71 N22G38    29.87R                  
OTTUMWA        LGT RAIN  55  51  86 N22G46    29.85R                  
WASHINGTON *   CLOUDY    59  52  77 NW28G44   29.80R                  
$$

ABBREVIATIONS USED IN REMARKS
   TC - TEMPERATURES IN CELSIUS
  WCI - WIND CHILL INDEX
   HX - HEAT INDEX
  VSB - VISIBILITY  
$$